DMSP 5D-2 F13 DEB, 40411

Orbit data source: Space-Track

DMSP 5D-2 F13 DEB, 40411 is space debris in SSO originally from a launch on Fri, 24 Mar 1995 UTC launched from the Air Force Western Test Range (AFWTR). Debris objects in space refer to the collection of defunct objects orbiting the Earth. Examples of debris include non-operational satellites, rocket bodies, and fragments generated from explosions, collisions, or faulty payload assembly.

Loading next visibility...
Identifier
40411, 1995-015Y
Orbit
SSO
Country
Flag of USUS
Related business
Manufacturer
Unknown
Mission
Spacecraft
Bus & Motor
Unknown
Mass
Unknown
Launch date (UTC)
1995-03-24 (31 years ago)
Launch vehicle
Unknown
Launch site
Air Force Western Test Range (AFWTR)
Object type
Payload
Rocket body
Debris
Shape & HBR
Unknown shape, 0.1 m
Radar Cross Section
Small (<0.1 m²)

Expand to show TLE details & history
Last TLE update: 11 hours ago

TLE from 11 hours ago
0 DMSP 5D-2 F13 DEB
1 40411U 95015Y   26251.31153823  .00000543  00000-0  29430-3 0  9995
2 40411  98.8975 268.8557 0026225 137.8920 222.4275 14.16465361594746
Epoch: 2026-09-08T07:28Z
TLE epoch observation values (Epoch: 2026-09-08T07:28:36.903Z)
Latitude
-0.00001°
Longitude
169.32217°
Altitude
854.228 km
Speed
7.418 km/s
True Right ascension
17h 55m 25s
True Declination
0° 00' 00"
Sunlit
Object was in daylight at epoch
Visualization orbit readout
Latitude
Unknown
Longitude
Unknown
Altitude
Unknown
Speed
Unknown
Apparent Right ascension
Unknown
Apparent Declination
Unknown
Sunlit
N/A
Visualization observer readout
Local Sidereal Time
10:37:35
Azimuth
Unknown
Elevation
Unknown
Doppler factor
Unknown
Orbital elements
Apogee altitude
853.419 km
Perigee altitude
815.589 km
Semi-major axis
7,212.641 km
Eccentricity
0.00262
Inclination
98.8975°
RAAN
268.8557°
Arg. of periapsis
137.892°
True anomaly
222.22524°
Mean anomaly
222.4275°
Eccentric anomaly
222.32632°
Mean motion
3.54325 °/min
Orbital period
101.6 mins
BSTAR
0.0002943
Loading maneuver chart data...
Computing Atmospheric mass density...

Documentation

Showing up to 5 results
|